User: anonymous   Login
Location: Taipo
(41.0000°S, 175.9500°E)
Time: 20:18:19
(UTC+00:00)
Language:

PCSat - Orbit

View from above orbital plane
View from above orbital plane
View from above satellite
View from above satellite

Ground track
Ground track

The orbit is defined by the following mean orbital elements,

1 26931U          26112.49210590 +.00000000 +00000-0 +62555-4 0 00003
2 26931  67.0527  28.3222 0006562 264.1709  95.8645 14.31933477    06
Epoch (UTC): 22 April 2026 11:48:37
Eccentricity: 0.0006562
inclination: 67.0527°
perigee height: 781 km
apogee height: 790 km
right ascension of ascending node: 28.3222°
argument of perigee: 264.1709°
revolutions per day: 14.31933477
mean anomaly at epoch: 95.8645°

The dashed part of the orbit path shows where the satellite is in the earth's shadow,  

DLR